Dewpoint
23 23 20 18 19 16 21 21 20 30 37 45 45 44 48 54 54 55 56 57 56 56 56 57 58 58 59 61 63 63 64 65 65 64 61 62 63 64 65 65 68 70 69 70
22 18 18 21 18 20 17 25 28 29 34 41 43 43 44 53 54 55 55 56 56 55 56 56 57 58 59 61 63 64 64 66 67 63 62 62 62 62 64 66 69 70 70 71
20 19 17 17 19 18 18 15 18 27 33 34 41 41 42 46 54 55 55 55 55 54 55 56 57 58 59 61 63 64 65 66 67 63 62 65 65 65 66 67 67 69 70 70
21 20 22 18 18 16 13 14 15 17 26 29 36 35 40 42 50 53 55 55 54 55 55 56 58 59 59 61 63 64 66 67 67 66 62 65 63 61 61 64 64 67 70 70
26 26 25 24 22 18 17 15 13 13 14 26 32 35 36 40 42 50 52 54 54 55 55 55 58 59 59 60 63 65 66 68 67 67 65 63 63 58 60 62 65 67 70 70
25 29 27 26 26 25 23 20 17 16 12 7 23 31 33 36 40 43 49 52 54 56 55 56 57 59 60 60 62 64 67 68 68 67 67 66 63 60 60 63 63 64 65 68
17 21 26 27 26 27 24 21 17 15 11 5 11 20 31 34 37 42 44 49 53 55 57 57 57 58 60 61 61 62 66 69 68 67 67 66 66 66 64 65 64 62 61 62
5 4 16 27 25 24 25 22 20 16 9 6 7 10 19 31 36 38 45 46 51 54 56 58 58 58 60 61 62 62 64 68 68 67 69 70 69 65 65 66 64 63 61 61
9 5 24 24 28 28 24 23 22 20 19 14 7 8 9 22 31 35 38 43 46 52 55 57 59 59 59 61 63 64 65 67 67 66 69 70 70 68 65 67 66 64 65 62
19 4 9 18 20 24 28 24 22 21 19 17 17 15 8 17 29 32 34 37 44 50 55 56 58 60 60 61 62 63 64 66 67 66 67 67 67 69 68 67 67 67 65 67
18 13 8 9 0 7 20 23 25 23 21 19 18 16 18 16 19 31 33 35 39 48 53 56 57 59 60 60 61 63 64 65 66 66 66 67 66 67 68 67 68 68 68 67
22 18 17 8 2 7 13 24 23 21 22 22 22 20 19 22 22 22 29 34 37 43 50 54 55 58 59 60 60 61 63 64 65 66 68 67 67 67 66 68 68 69 69 69
24 18 13 0 0 6 8 11 22 26 26 24 23 23 26 26 28 26 24 27 36 40 45 51 53 55 58 59 60 60 61 62 63 65 65 65 66 66 66 68 68 69 69 70
24 15 15 4 1 8 17 19 19 23 23 23 24 25 28 27 26 29 31 33 30 33 42 46 51 53 57 59 62 62 61 61 61 63 64 65 66 66 66 68 69 68 70 70
27 26 18 16 15 14 11 7 16 24 27 26 24 24 26 30 29 29 31 32 34 35 40 47 49 53 58 61 63 64 62 62 61 64 63 65 68 68 68 69 70 70 70 70
27 25 20 16 16 15 11 7 6 14 21 25 27 27 30 30 33 31 30 32 36 42 41 38 47 51 55 59 63 65 65 63 64 65 65 66 69 70 70 70 71 71 71 71
28 27 22 15 11 8 6 8 12 10 18 24 25 27 30 34 37 37 38 39 45 49 51 53 50 48 52 57 61 63 66 65 65 67 67 68 70 71 71 71 72 71 71 71
27 28 26 17 11 11 12 12 13 13 14 23 27 29 30 38 43 54 56 56 56 57 57 57 57 56 51 54 56 61 63 66 67 68 69 69 71 71 72 72 72 73 71 71
27 29 25 21 15 15 17 20 25 14 15 25 29 30 28 36 44 55 58 59 60 61 62 62 62 60 59 53 55 60 62 65 67 68 69 70 71 71 71 71 72 72 71 71
28 30 29 21 18 15 22 33 34 38 24 40 41 39 34 39 41 45 58 58 59 61 63 64 64 64 62 62 54 57 62 64 67 68 69 71 71 71 71 72 72 72 72 71
26 31 27 23 21 21 24 33 36 32 34 40 43 47 52 44 51 53 53 55 57 61 63 65 64 64 62 60 54 60 63 64 67 67 68 70 71 72 72 73 73 73 71 70
27 26 26 27 24 21 36 36 34 42 41 42 43 46 47 45 45 46 48 49 53 59 65 64 59 57 55 54 59 64 65 66 68 68 68 70 72 70 70 73 73 72 72 72
27 31 30 30 30 37 37 37 44 43 44 43 42 44 42 40 42 44 45 46 47 51 61 66 63 60 60 61 61 64 67 69 68 68 70 70 71 71 71 72 72 72 72 70
33 34 31 31 35 34 39 41 45 46 44 44 43 43 44 44 43 44 46 48 48 50 52 63 67 68 66 64 64 65 67 70 69 69 70 70 71 71 70 71 71 70 69 69
33 35 32 32 34 37 40 41 45 44 45 44 43 44 44 44 44 44 48 49 50 51 52 54 62 66 66 68 68 70 69 69 69 70 70 70 70 71 71 70 67 69 69 68
37 34 31 31 36 37 37 43 45 44 43 44 43 44 46 47 46 46 48 50 50 51 52 53 55 61 63 64 66 67 69 71 68 68 68 68 67 69 70 70 68 59 59 59
Wind_Speed
17 22 27 21 21 19 8 14 19 16 14 17 22 17 15 16 16 18 20 24 27 30 31 30 29 28 26 25 23 22 21 19 17 16 16 14 14 11 9 7 6 7 7 7
14 26 22 17 16 18 19 13 15 10 9 12 21 23 17 19 20 21 21 23 25 27 31 32 31 30 29 27 26 24 23 21 19 17 15 13 12 12 10 7 7 8 9 8
21 6 23 17 18 20 22 22 17 12 4 15 16 20 21 20 17 18 19 21 24 28 31 32 32 32 30 29 28 26 25 23 21 17 15 12 10 7 10 9 9 9 10 10
20 17 7 21 21 21 22 20 16 17 15 17 24 23 27 23 22 21 22 24 26 29 30 32 33 33 33 30 28 27 25 24 22 20 19 18 17 15 13 12 10 9 11 11
13 16 23 21 15 23 20 13 15 17 21 20 18 19 24 31 25 25 24 25 26 29 32 33 35 34 32 31 29 28 26 24 22 22 19 20 18 15 13 13 11 9 10 11
18 1 7 23 22 13 5 17 15 16 19 29 30 25 26 29 28 26 26 25 26 29 31 32 32 31 31 31 31 29 28 26 25 24 25 20 20 17 16 15 14 13 12 13
14 18 14 12 15 24 20 15 15 18 24 34 26 28 28 16 23 23 24 25 26 28 30 30 32 34 33 34 34 31 30 30 29 28 26 25 22 21 18 16 17 13 13 12
13 16 17 1 19 16 28 28 19 27 23 31 27 31 34 34 21 14 21 19 24 26 28 31 33 34 35 35 35 33 32 30 30 30 27 24 24 22 22 20 16 16 15 13
9 12 3 3 5 10 22 32 31 30 20 20 24 24 21 27 31 33 17 23 20 25 28 32 33 34 34 35 36 35 32 32 31 32 27 26 25 24 22 19 19 17 14 12
3 8 5 3 9 18 21 21 25 29 32 31 23 25 25 26 26 29 31 27 22 22 26 28 31 34 34 35 36 36 34 34 33 31 29 28 28 25 23 19 20 18 17 16
2 4 9 3 13 20 22 28 20 22 29 29 31 26 17 21 28 28 31 29 29 22 26 29 31 33 35 33 34 37 36 34 33 33 30 29 29 28 25 24 22 21 19 17
1 4 11 14 12 12 12 17 23 31 31 33 32 15 19 6 17 27 31 24 28 26 26 28 30 31 32 34 35 37 37 35 34 32 29 31 28 27 27 25 24 21 21 20
5 5 8 10 21 19 14 24 20 20 29 32 33 32 24 14 6 13 23 29 23 25 26 27 25 28 32 35 36 37 36 37 35 32 33 32 31 29 28 27 25 23 22 22
3 13 14 18 16 12 11 14 16 22 29 30 35 27 21 28 20 11 13 15 20 27 19 23 24 27 29 32 32 33 36 36 35 34 34 31 32 31 30 27 25 25 23 23
11 13 17 21 19 19 21 23 23 24 23 31 27 31 33 25 27 19 10 6 3 8 17 20 22 25 26 28 29 31 33 32 34 32 35 33 31 30 28 26 26 25 24 24
19 18 15 21 19 22 28 29 33 31 31 32 30 37 37 33 26 31 28 21 12 11 8 10 18 22 25 29 31 31 32 33 33 32 34 30 29 29 29 27 27 25 25 25
20 15 16 23 22 24 31 27 34 39 34 35 36 32 34 18 18 24 21 18 13 11 10 11 13 17 23 28 30 33 34 32 33 31 30 29 29 29 29 28 27 27 26 24
18 20 17 22 21 25 30 32 33 40 39 37 34 34 44 12 9 3 3 7 9 9 11 13 14 17 22 25 28 29 29 31 30 30 30 30 29 29 28 28 28 27 26 25
27 18 11 18 19 22 32 29 27 40 39 32 40 39 46 21 15 13 2 5 9 12 15 18 18 21 20 22 25 28 29 31 30 32 31 31 31 30 29 29 28 27 26 24
31 27 20 15 14 20 13 23 39 45 31 21 17 21 30 23 28 16 9 10 12 13 15 19 21 22 23 25 27 29 32 32 33 34 34 31 30 30 30 28 28 26 24 26
23 24 25 25 21 18 19 26 31 14 16 15 6 6 12 26 3 7 10 11 12 14 19 20 21 23 26 25 30 30 31 35 35 30 29 28 28 28 26 25 25 26 26 23
10 10 12 14 15 21 7 20 7 4 12 8 3 9 14 13 11 12 13 15 17 19 19 13 11 16 20 25 27 28 31 23 25 26 27 27 27 27 26 25 24 24 23 24
4 6 4 9 7 5 16 25 15 10 6 4 9 13 14 15 17 16 17 19 19 20 21 18 3 6 11 19 22 23 19 19 23 23 24 25 26 25 22 24 24 23 23 22
2 8 6 4 7 13 12 14 16 4 5 7 10 14 14 16 16 16 20 20 20 22 23 19 18 15 10 10 15 18 20 19 23 22 23 22 22 23 23 23 22 23 24 24
3 9 10 7 7 16 8 16 14 11 10 11 11 14 15 14 17 18 19 19 19 21 23 22 19 17 18 18 17 11 12 19 21 21 20 19 18 19 19 16 7 19 19 16
12 8 9 4 17 7 13 16 15 10 13 11 12 15 16 17 19 17 18 17 18 21 21 23 24 23 21 20 19 16 11 6 16 17 19 18 16 17 15 15 5 15 15 14
Wind_Direction
195 206 214 213 216 238 288 232 230 202 228 204 223 219 177 181 188 178 183 186 189 193 189 188 192 191 191 188 188 190 193 189 188 191 195 194 193 188 198 210 198 191 191 186
185 223 219 227 217 229 234 237 229 250 238 247 225 229 217 182 194 187 187 189 194 191 188 190 193 195 195 191 193 191 194 193 198 195 201 200 202 191 199 197 178 185 185 181
213 228 215 208 224 217 229 233 233 247 181 257 255 237 227 188 200 190 193 193 194 194 190 191 194 197 197 194 194 195 194 194 199 201 196 191 197 209 197 188 187 186 189 188
229 216 203 201 222 212 232 223 241 250 254 237 214 236 212 211 201 201 197 194 195 195 197 192 194 198 198 197 194 197 196 197 197 199 195 198 197 200 199 196 192 172 192 194
210 220 226 222 215 221 238 242 233 238 247 255 231 235 240 203 204 204 206 200 197 198 195 196 198 198 197 196 196 197 197 199 199 195 210 198 214 207 200 205 186 213 183 199
259 251 267 231 225 205 243 222 224 233 236 240 232 234 228 228 206 205 203 204 200 197 200 200 197 197 199 196 197 195 193 199 200 198 204 207 205 218 210 206 201 205 199 192
213 234 225 247 218 211 210 193 208 221 220 234 221 231 231 229 223 214 210 204 204 201 199 198 197 196 197 198 198 198 195 198 198 200 202 207 213 209 211 205 212 214 212 206
223 200 204 263 238 213 213 213 222 219 216 230 219 234 229 232 257 258 219 215 203 206 200 200 199 198 197 198 197 200 196 200 198 200 203 203 206 212 214 210 224 216 224 216
219 232 139 241 259 245 221 219 226 256 263 249 222 219 235 219 223 232 229 231 204 202 204 201 199 199 198 198 198 198 196 197 201 201 201 203 204 215 214 220 213 225 225 230
112 260 192 244 266 237 241 229 216 231 239 244 231 240 217 213 222 222 225 221 219 203 205 203 202 200 200 200 199 199 200 199 198 201 202 205 207 209 220 217 221 222 225 224
279 254 158 273 213 220 219 241 253 245 224 236 234 237 225 224 218 222 225 223 218 205 204 205 203 204 202 199 197 198 200 200 200 200 202 205 208 210 212 219 219 221 225 220
195 301 255 248 260 274 280 272 244 230 226 235 257 250 201 220 236 222 230 219 217 205 206 207 204 202 202 200 198 197 198 198 200 197 199 202 204 208 211 215 219 216 217 221
184 218 272 234 216 231 236 243 241 258 268 252 228 230 250 280 257 245 225 228 213 217 210 208 203 201 204 202 202 200 199 199 197 196 197 202 205 205 208 210 215 212 214 218
234 262 246 266 308 345 280 273 274 246 247 247 245 256 240 231 249 240 227 243 234 219 215 218 213 209 204 205 201 202 201 201 197 195 199 198 200 204 207 207 207 209 210 214
233 243 249 256 264 274 269 269 258 252 251 252 259 252 243 241 245 248 224 172 204 224 221 211 215 210 203 203 202 201 205 201 200 194 200 199 199 201 202 203 203 206 207 212
225 254 263 267 260 258 259 260 263 250 249 254 254 263 275 248 236 248 250 255 251 248 224 225 220 218 211 207 204 198 201 200 200 196 200 197 196 197 198 199 199 201 207 211
214 237 245 257 261 255 250 251 256 257 241 241 243 241 256 249 243 255 260 255 258 259 256 249 238 227 219 211 205 202 199 196 197 197 197 196 194 196 197 196 197 199 204 208
225 226 243 255 273 261 258 255 258 253 242 235 242 245 248 238 266 259 259 273 275 275 272 264 252 242 235 221 210 207 198 197 196 196 195 195 194 196 195 196 198 199 202 206
225 221 240 241 248 261 276 271 265 235 233 228 238 228 239 243 244 203 241 318 296 291 285 275 261 253 247 236 216 196 201 196 195 195 197 195 193 195 195 198 198 200 203 205
216 205 215 241 248 258 261 319 319 310 212 200 222 237 225 225 226 213 357 339 327 306 286 276 267 251 236 226 217 199 197 195 198 196 197 193 192 193 195 194 194 197 201 206
200 208 214 233 250 269 286 298 302 244 177 159 167 265 243 225 272 23 5 357 339 319 300 279 264 243 231 217 208 196 194 199 199 196 194 192 193 192 194 194 192 192 198 204
187 188 217 233 245 257 16 305 226 38 89 98 146 111 102 91 72 50 32 17 1 341 329 306 265 217 212 198 196 189 197 194 188 193 190 189 191 192 192 195 195 197 198 204
198 209 262 213 224 327 296 281 323 0 73 62 75 78 88 88 68 48 41 25 14 2 355 355 17 174 180 183 185 182 188 178 187 192 191 190 190 190 189 193 194 196 200 207
250 225 240 273 224 281 271 303 305 348 18 37 53 65 61 66 58 43 43 31 20 16 10 6 46 57 81 147 172 185 179 179 179 186 191 190 193 192 195 193 198 203 203 207
292 293 291 262 276 322 233 318 352 355 31 37 45 47 46 43 40 37 35 31 23 16 16 20 26 63 71 70 70 77 163 181 179 185 185 184 190 189 198 199 208 213 213 215
360 357 349 297 318 320 292 322 348 12 29 26 29 44 46 32 26 23 39 23 25 22 16 24 24 27 51 55 59 62 57 135 177 190 174 172 185 174 195 180 167 57 30 360